Location: *
(37.5724°S, 58.0067°E)
Time: 18:36:19
(UTC+00:00)

NOSS 3-1 (A) - Pass Details

Date: 25 June 2021
Orbit: 729 x 1483 km, 63.4° (Epoch: 23 July)

Event Time Altitude Azimuth Distance (km) Brightness Sun altitude
Rises 14:21:46 0° 206° (SSW) 3,889 6.8 -16.1°
Reaches altitude 10° 14:25:22 10° 190° (S) 2,782 5.8 -16.8°
Enters shadow 14:30:02 21° 143° (SE) 1,931 4.6 -17.6°
